Terug naar catalogus

STARLINK-34793

ActiefCommunicatieSSO
NORAD 65064·PAYLOAD·🇺🇸 United States

Gelanceerd Jul 31, 2025 vanaf Vandenberg Space Force Base

Loading…

Volgende Passages (komende 24 uur)

TLE

VersSource: CelesTrak SupGP

Epoch: Sep 14, 2026, 23:07 UTC

1 65064C 25165J   26257.96368056  .02129100  00000+0  81795-1 0  2577
2 65064  97.2841 329.3119 0001491  80.8683 155.3270 15.25434688    10

Volg STARLINK-34793 in realtime met AllMySat

Download on the App Store